Вернуться в каталог

TITAN 3C TRANSTAGE DEB

АктивенMEO
NORAD 43447·DEBRIS·🇺🇸 United States

Запущен Feb 9, 1969 с Cape Canaveral Space Force Station

Loading…

Ближайшие Пролёты (ближайшие 24 часа)

TLE

СвежийSource: Space-Track

Эпоха: Sep 13, 2026, 14:13 UTC

1 43447U 69013G   26256.59283431 -.00000088  00000-0  00000+0 0  9993
2 43447   1.5137  81.6155 0136311  27.1452 334.5220  0.97139757 30126

Отслеживайте TITAN 3C TRANSTAGE DEB в реальном времени с AllMySat

Download on the App Store